sat.trackr.live / text

‹ back to catalog

JILIN GAOFEN OBJECT H

NORAD 68698 · 2026-080H

PAYLOAD ACTIVE UNKNOWN

§ Identity

Operator
Country
PRC
Launch date
2026-04-14
Launch site
JSC
Launch vehicle
Mass (kg)
RCS (m²)

External: N2YO · Heavens-Above · Gunter

§ Orbital elements

Epoch: 2026-05-19T12:56:44.304288Z

Period
95.37 min
Inclination
97.6650°
Eccentricity
0.0016159
Mean motion
15.09880071 rev/d
Perigee alt
525.4 km
Apogee alt
547.7 km
Semi-major
6,914.7 km
B*
2.3163e-4
RAAN
215.1871°
Arg perigee
159.8385°
Mean anomaly
200.3486°
Rev number
530

§ Raw data

JILIN GAOFEN OBJECT H1 68698U 26080H   26139.53940167  .00003696  00000+0  23163-3 0  99902 68698  97.6650 215.1871 0016159 159.8385 200.3486 15.09880071  5308

JSON: /api/v1/satellites/68698 · /tle

For live sub-satellite position, see the globe view (requires WebGL).

§ Visibility from observer

Set your observer location to see the next 7 days of passes ≥ 10°. The values pass through the URL so the page stays shareable.

No JS? Fill the form by hand. The geolocation button needs JavaScript.